OROVILLE DAM (ORO)

Elevation: 900' · FEATHER R basin · Operator: CA Dept of Water Resources/O & M

Provisional data, subject to change.
Query executed Tuesday at 7:21:49   clock

Select a sensor type for a plot of data.
Note: Reservoir Flows are daily averages.

Earlier

Date RES ELE    STORAGE    RES CHG    TOC STO    ABV TOC    OUTFLOW    INFLOW    EVAP    FNF    PPT INC    RAIN    PPTINC4   
 FEET   AF   AF   AF   AF   CFS   CFS   CFS   CFS   INCHES   INCHES   INCHES  
06/01/2015 737.06 1559875 -5502 3538000 -1978125 2917 212 69 1574 0.00 25.84 0.00
06/02/2015 736.55 1555360 -4515 -- -- 2936 764 105 1393 e 0.00 25.84 0.00
06/03/2015 736.01 1550589 -4771 3538000 -- 3488 1159 77 1380 e 0.00 25.84 0.00
06/04/2015 735.37 1544948 -5641 3538000 -- 3649 884 79 1436 0.00 25.84 0.00
06/05/2015 734.81 1540024 -4924 3538000 -1997976 3498 1089 74 1181 0.00 25.84 0.00
06/06/2015 734.24 1535023 -5001 3538000 -2002977 3456 1055 76 1280 e 0.16 26.00 0.00
06/07/2015 733.82 1531345 -3678 3538000 -2006655 2926 1060 76 1280 e 0.00 26.00 0.16
06/08/2015 733.40 1527674 -3671 3538000 -2010326 3449 1744 101 1240 e 0.00 26.00 0.00
06/09/2015 732.64 1521046 -6628 3538000 -2016954 3552 357 146 1239 e 0.00 26.00 0.00
06/10/2015 732.14 1516696 -4350 3538000 -2021304 3169 1130 154 1248 e 0.00 26.00 0.00
06/11/2015 731.68 1512688 -4008 3538000 -2025312 2907 958 65 1247 e 0.00 26.00 0.00
06/12/2015 731.20 1508528 -4160 3538000 -2029472 3192 1197 103 1139 e 0.00 26.00 0.00
06/13/2015 730.78 1504894 -3634 3538000 -2033106 3167 1521 100 1392 0.00 26.00 0.00
06/14/2015 730.32 1500920 -3974 3538000 -2037080 3239 1292 100 1274 0.00 26.00 0.00
06/15/2015 729.86 1496954 -3966 3538000 -2041046 3195 1221 112 929 0.00 26.00 0.00
06/16/2015 729.20 1491277 -5677 3538000 -2046723 3892 1160 87 1190 0.00 26.00 0.00
06/17/2015 728.55 1485700 -5577 3538000 -2052300 3901 1157 111 964 0.00 26.00 0.00
06/18/2015 727.89 1480053 -5647 3538000 -2057947 4301 1555 101 988 0.00 26.00 0.00
06/19/2015 727.17 1473908 -6145 3538000 -2064092 4211 1272 116 932 0.00 26.00 0.00
06/20/2015 726.42 1467527 -6381 3538000 -2070473 4209 1055 106 965 e 0.00 26.00 0.00
06/21/2015 725.66 1461080 -6447 3538000 -2076920 4677 1651 96 1049 0.00 26.00 0.00
06/22/2015 724.73 1453218 -7862 3538000 -2084782 4760 820 110 729 0.00 26.00 0.00
06/23/2015 723.72 1444713 -8505 3538000 -2093287 4705 477 102 727 0.00 26.00 0.00
06/24/2015 723.35 1441606 -3107 3538000 -2096394 2698 1283 109 849 0.00 26.00 0.00
06/25/2015 722.53 1434736 -6870 3538000 -2103264 4829 1467 102 1233 0.00 26.00 0.00
06/26/2015 721.56 1426639 -8097 3538000 -- 4806 830 106 850 0.00 26.00 0.00
06/27/2015 720.67 1419238 -7401 3538000 -- 4663 1045 113 705 0.00 26.00 0.00
06/28/2015 719.82 1412194 -7044 3538000 -- 4622 1142 113 1255 0.00 26.00 0.00
06/29/2015 718.85 1404184 -8009 3538000 -2133816 5026 1097 67 -- 0.00 -- 0.00
06/30/2015 -- -- -- -- -- -- -- -- -- -- -- --

Later | Latest

Warning! This data is preliminary and subject to revision.

Show ORO Map | Plot ORO Data | 1 Month ORO Data | Real-Time ORO Data | ORO Info